Tracking 18852 objects as of 24-Nov-2017
HD Live streaming from Space Station
objects crossing your sky now

FENGYUN 1C DEB

Track FENGYUN 1C DEB now!
10-day predictions


NORAD ID: 30593
Int'l Code: 1999-025ALY
Perigee: 776.2 km
Apogee: 791.8 km
Inclination: 102.4 °
Period: 100.4 minutes
Semi major axis: 7155 km
RCS: 0.0129 m2 (small)
Launch date: May 10, 1999
Source: People's Republic of China (PRC)
Launch site: Taiyaun Space Center, China (TSC)

Note: This is SATELLITE DEBRIS
aabbcc
Your satellite tracking list
Your tracking list is empty




NASA's NSSDC Master Catalog

Two Line Element Set (TLE):
1 30593U 99025ALY 17327.50049056  .00002147  00000-0  78920-3 0  9997
2 30593 102.4041 155.1920 0010896  84.5928 330.6502 14.34458316562750
Source of the keplerian elements: AFSPC